Location: Asheville, NC
(35.6000°N, 82.5500°W)
Time: 09:30:10
(UTC-04:00)

ITAMSAT 1 - Pass Details

Date: 15 March 2018
Orbit: 784 x 796 km, 98.9° (Epoch: 24 June)

Event Time Altitude Azimuth Distance (km) Brightness Sun altitude
Rises 05:13:52 0° 17° (NNE) 3,300 11.4 -30.2°
Reaches altitude 10° 05:16:14 10° 21° (NNE) 2,365 10.6 -29.7°
Maximum altitude 05:21:24 60° 101° (ESE) 904 8.1 -28.7°
Enters shadow 05:22:20 51° 145° (SE) 988 8.1 -28.6°
